Regional Weather Roundup
Issued by NWS Bismarck, ND

Home | Current Version | Previous Version | Text Only | Print | Product List | Glossary On
Versions: 1 2 3 4 5 6 7 8 9 10 11 12 13 14 15 16 17 18 19 20 21 22 23 24 25 26 27 28 29 30 31 32 33 34 35 36 37 38 39 40 41 42 43 44 45 46 47 48 49 50
000
ASUS43 KBIS 080310
RWRBIS

NWR BROADCAST TEXT
NATIONAL WEATHER SERVICE BISMARCK ND
900 PM CST WED DEC 07 2016

NOTE: "FAIR" INDICATES FEW OR NO CLOUDS BELOW 12,000 FEET WITH NO
SIGNIFICANT WEATHER AND/OR OBSTRUCTIONS TO VISIBILITY.


CITY           SKY/WX    TMP DP  RH WIND       PRES   REMARKS
WILLISTON      CLOUDY     2  -6  69 NW17      30.56R WCI -18
MINOT          LGT SNOW   6   1  80 W33       30.40R WCI -19
MINOT AFB      DRIZZLE    5   0  81 NW29      30.39R WCI -19
BISMARCK       MIX PCPN   4  -1  80 NW15G24   30.44R WCI -14
DICKINSON      CLOUDY     0  -6  76 W26       30.42R WCI -25
GARRISON         N/A      3  -1  83 NW28G36   30.41R WCI -21
HETTINGER ARPT PTCLDY     0  -6  76 NW18      30.45R WCI -21
JAMESTOWN      LGT SNOW   8   5  87 NW29G36   30.26R FOG     WCI -15
CARRINGTON     LGT SNOW   7   3  85 NW29G37   30.31R VSB 3/4 WCI -16
HAZEN          LGT SNOW   5   0  78 NW21      30.46S WCI -16
RUGBY          LGT SNOW   7   5  92 NW25      30.33R VSB 1   WCI -15
STANLEY        LGT SNOW   3   1  92 NW24G32   30.44S WCI -20
TIOGA          LGT SNOW   1   0  92 NW26      30.46S WCI -23
WATFORD CITY   CLOUDY     1  -4  78 NW15      30.53R WCI -18
$$

CITY           SKY/WX    TMP DP  RH WIND       PRES   REMARKS
GRAND FORKS    CLOUDY    20  16  84 NW23G31   30.17R BLWGSNOWWCI   3
GRAND FORKS AF LGT SNOW  19  16  86 N20G29    30.19R WCI   4
DEVILS LAKE    LGT SNOW  13  10  88 NW22      30.25R FOG     WCI  -6
FARGO          LGT SNOW  19  14  81 NW23      30.18R WCI   2
CANDO          CLOUDY    14  10  85 NW28G36   30.30R WCI  -6
CAVALIER       LGT SNOW  19  18  93 NW25      30.21R WCI   2
GRAFTON        LGT SNOW  19  18  93 NW18G26   30.21R WCI   4
GWINNER        CLOUDY    14  10  85 NW29      30.25R WCI  -7
LANGDON        LGT SNOW  16  12  86 NW22G29   30.20R WCI  -2
ROLLA          LGT SNOW   9   7  92 NW37G43   30.27R VSB 1   WCI -16
WALHALLA       LGT SNOW  18  18 100 NW23G32   30.23R WCI   0
$$

CITY           SKY/WX    TMP DP  RH WIND       PRES   REMARKS
ABERDEEN       LGT SNOW   9   2  73 NW25G36   30.34S WCI -12
MOBRIDGE       CLEAR      5  -4  66 NW29      30.40R WCI -19
BUFFALO          N/A      4  -4  69 NW22      30.39R WCI -18
RAPID CITY     CLEAR      1  -6  72 N9        30.44S WCI -14
GLASGOW        CLEAR     -1  -9  68 W13       30.60R WCI -19
SIDNEY         CLOUDY     2  -5  72 NW22G31   30.57R WCI -20
WOLF POINT     CLOUDY     2  -7  66 W9        30.62R WCI -13
GLENDIVE       CLOUDY     1  -5  75 NW12      30.57R WCI -16
MILES CITY     CLEAR     -1  -7  75 NW8       30.59R WCI -15
BAKER          CLOUDY     2  -4  76 NW17G28   30.50R WCI -18
$$

CITY           SKY/WX    TMP DP  RH WIND       PRES   REMARKS
BILLINGS       PTCLDY     5  -5  63 NE7       30.50R WCI  -7
GREAT FALLS    CLOUDY     0  -6  76 CALM      30.52R
REGINA         CLOUDY     3  -2  78 NW17      30.53R WCI -17
ESTEVAN        LGT SNOW   3   0  85 NW25G32   30.47R BLWGSNOWWCI -20
$$





USA.gov is the U.S. government's official web portal to all federal, state and local government web resources and services.